[[{"header":{"parameterUnit":"m.s-1","parameterCategory":1,"la1":30.2991,"la2":30.254,"lo1":-89.0895,"lo2":-89.0444,"dy":0.0017,"dx":0.0017,"nx":28,"ny":28,"refTime":"2025-04-09T09:00:00:Z","depth":0,"parameterNumber":2,"parameterNumberName":"U-component_of_WINDS"},"data":[0,0,0,0,0,0,0,0,0,0,0,0,0,0,0,0,0,0,0,0,0,0,0,0,0,0,0,0,0,0,0,0,0,0,0,0,0,0,0,0,0,0,0,0,0,0,0,0,0,0,0,0,0,0,0,0,0,0,1.5582,1.5581,0,1.5551,1.555,1.555,1.5505,1.5504,1.5503,1.5503,1.5472,1.5472,1.5472,0,0,0,0,0,0,0,0,0,0,0,0,0,1.5602,1.5602,1.5582,1.5581,1.5581,1.5551,1.555,1.555,1.5505,1.5504,1.5503,1.5502,1.5472,1.5472,1.5472,0,0,0,0,0,0,0,0,0,0,0,0,0,1.5585,1.5602,1.5582,1.5555,1.5552,1.5551,1.555,1.555,1.5505,1.5504,1.5503,1.5502,1.5472,1.5472,1.5472,1.5495,0,0,1.5471,1.5471,0,0,0,0,0,0,0,0,1.5586,1.5584,1.5559,1.5557,1.5554,1.553,1.5546,1.5531,1.5506,1.5523,1.5503,1.5501,1.5492,1.549,1.5487,1.5493,1.5492,1.5471,1.5471,1.5471,1.5471,0,0,0,0,0,0,0,1.5587,1.5585,1.5569,1.5559,1.5555,1.5544,1.5541,1.5543,1.5515,1.5521,1.5518,1.5515,1.5491,1.5488,1.5486,1.5491,1.5471,1.5471,1.5471,1.5471,1.5514,1.5515,0,0,0,0,0,0,1.5592,1.5586,1.557,1.5568,1.5567,1.5545,1.5541,1.5539,1.5515,1.551,1.5516,1.5513,1.5488,1.5486,1.5485,1.5509,1.5471,1.5471,1.5471,1.5513,1.5514,1.5515,0,0,0,0,0,0,1.5593,1.5591,1.5572,1.5576,1.5573,1.5546,1.5544,1.5539,1.5536,1.551,1.5505,1.5518,1.5487,1.5485,1.5492,1.5508,1.5471,1.5471,1.5511,1.5513,1.5515,1.5559,0,0,0,0,0,0,1.5593,1.5592,1.56,1.5577,1.5573,1.5579,1.5545,1.5539,1.5536,1.5531,1.5511,1.5506,1.5486,1.5493,1.5492,1.5507,1.5471,1.551,1.5512,1.5514,1.5556,1.5562,1.5568,0,0,0,0,0,1.5594,1.5614,1.56,1.5599,1.5583,1.558,1.5578,1.5554,1.5537,1.5545,1.5529,1.5507,1.5506,1.5494,1.5493,1.5508,1.5508,1.5511,1.5514,1.5554,1.5561,1.5567,0,0,0,0,0,0,1.564,1.561,1.5595,1.5608,1.5597,1.5573,1.5582,1.5563,1.5557,1.5553,1.5524,1.552,1.553,1.552,1.5506,1.5528,1.5504,1.5507,1.5535,1.5542,1.5547,1.5549,1.5471,0,0,0,0,0,1.5651,1.5651,1.5626,1.564,1.5635,1.561,1.5608,1.559,1.5578,1.5573,1.5557,1.5546,1.5543,1.5542,1.5538,1.5555,1.5549,1.5565,1.557,1.5575,1.5578,1.5585,1.5591,1.5524,1.5524,1.5524,0,0,1.5675,1.5659,1.5661,1.5648,1.5638,1.5639,1.5606,1.5609,1.5609,1.5573,1.5579,1.5567,1.5553,1.5565,1.5569,1.5556,1.5595,1.5579,1.5583,1.5582,1.5588,1.5595,1.56,1.5526,1.5526,1.5525,0,0,1.5718,1.5706,1.5716,1.5706,1.569,1.5673,1.5676,1.5655,1.5645,1.565,1.5623,1.5624,1.562,1.561,1.5605,1.5645,1.5625,1.5645,1.5674,1.5682,1.5687,1.5691,1.5705,1.571,1.5647,1.5648,1.5648,0,1.5749,1.5749,1.5724,1.5727,1.5723,1.569,1.57,1.5692,1.5676,1.5673,1.5659,1.5653,1.5641,1.565,1.566,1.5657,1.5659,1.5646,1.5688,1.5693,1.5696,1.5709,1.5714,1.565,1.565,1.5649,1.5649,0,1.5788,1.5789,1.5799,1.5784,1.578,1.5787,1.5762,1.5762,1.5745,1.5729,1.5735,1.572,1.5712,1.5713,1.5696,1.5719,1.5712,1.5694,1.5668,1.5706,1.5717,1.5722,1.5654,1.5653,1.5652,1.5651,0,0,1.5859,1.5829,1.5833,1.5826,1.5806,1.5806,1.5812,1.5803,1.5803,1.5794,1.5797,1.5795,1.5777,1.5772,1.5754,1.5761,1.5793,1.5741,1.5741,1.5751,1.5816,1.5829,1.5835,1.5779,1.578,1.5781,1.5817,0,1.5898,1.5905,1.5882,1.5895,1.5895,1.5864,1.5869,1.5857,1.5843,1.5841,1.5826,1.5824,1.5802,1.5798,1.5804,1.5788,1.5805,1.5785,1.5782,1.5782,1.5785,1.5841,1.5855,1.589,1.5821,1.5822,1.5823,0,1.5944,1.5936,1.5949,1.5928,1.5927,1.5932,1.5922,1.5921,1.5907,1.5897,1.589,1.5869,1.5873,1.585,1.5855,1.5841,1.5839,1.5831,1.5832,1.583,1.5804,1.584,1.5901,1.5906,1.583,1.5829,1.5829,0,1.5993,1.5986,1.5992,1.5987,1.5963,1.5967,1.5957,1.5942,1.5939,1.5931,1.5928,1.5921,1.5917,1.5912,1.589,1.5875,1.5897,1.5872,1.5888,1.5889,1.5894,1.5893,1.5954,1.5894,1.5894,1.5894,1.5894,0,1.6038,1.6047,1.6014,1.6018,1.6027,1.6,1.601,1.5997,1.5985,1.5986,1.5959,1.5961,1.5932,1.5931,1.5914,1.592,1.5919,1.591,1.5905,1.5912,1.5913,1.5909,1.5906,1.5895,1.5895,1.5895,1.5894,0,1.6094,1.6072,1.6077,1.6054,1.6048,1.6056,1.6036,1.6039,1.6024,1.6025,1.6024,1.6,1.5996,1.5974,1.5966,1.5955,1.5967,1.5958,1.5972,1.5968,1.5985,1.5983,1.6045,1.6051,1.5988,1.5989,1.5989,0,1.6124,1.613,1.6107,1.6106,1.6097,1.6096,1.6092,1.6066,1.6063,1.6048,1.6053,1.6047,1.6042,1.6038,1.602,1.6013,1.6003,1.6025,1.6002,1.6008,1.6003,1.6002,1.6002,1.603,1.6031,1.6031,1.6032,0,1.6179,1.6168,1.6163,1.6155,1.6151,1.6143,1.6134,1.6134,1.6106,1.6104,1.61,1.6096,1.6087,1.6082,1.6073,1.6063,1.6043,1.604,1.6043,1.6049,1.6056,1.6052,1.5984,1.6038,1.6037,1.6037,1.6037,1.6036,1.6222,1.6226,1.621,1.6206,1.6196,1.6188,1.6189,1.6174,1.617,1.6161,1.6146,1.6144,1.613,1.6115,1.6107,1.6105,1.6094,1.6098,1.6099,1.6101,1.6104,1.6057,1.6104,1.6103,1.6103,1.6103,1.6103,0,1.6275,1.6264,1.626,1.6247,1.6244,1.6225,1.6214,1.6212,1.6211,1.6199,1.6194,1.619,1.6184,1.6166,1.6159,1.6161,1.6151,1.616,1.6159,1.6157,1.6115,1.6113,1.6167,1.6167,1.6167,1.6167,1.6167,1.6167,1.6302,1.6307,1.6294,1.6294,1.6283,1.628,1.6275,1.6267,1.6258,1.6254,1.6249,1.6237,1.6223,1.6214,1.6209,1.6203,1.6202,1.6213,1.6204,1.6166,1.616,1.6154,1.6151,1.6213,1.6213,1.6246,1.6246,1.6246]},{"header":{"parameterUnit":"m.s-1","parameterCategory":1,"la1":30.2991,"la2":30.254,"lo1":-89.0895,"lo2":-89.0444,"dy":0.0017,"dx":0.0017,"nx":28,"ny":28,"refTime":"2025-04-09T09:00:00:Z","depth":0,"parameterNumber":3,"parameterNumberName":"V-component_of_WINDS"},"data":[0,0,0,0,0,0,0,0,0,0,0,0,0,0,0,0,0,0,0,0,0,0,0,0,0,0,0,0,0,0,0,0,0,0,0,0,0,0,0,0,0,0,0,0,0,0,0,0,0,0,0,0,0,0,0,0,0,0,-4.1159,-4.1162,0,-4.1359,-4.1362,-4.1364,-4.1336,-4.1333,-4.133,-4.1327,-4.1531,-4.1539,-4.1547,0,0,0,0,0,0,0,0,0,0,0,0,0,-4.0754,-4.0761,-4.1159,-4.1162,-4.1164,-4.1359,-4.1362,-4.1364,-4.1337,-4.1333,-4.1329,-4.1325,-4.1528,-4.1538,-4.1548,0,0,0,0,0,0,0,0,0,0,0,0,0,-4.094,-4.0764,-4.1159,-4.1174,-4.1177,-4.1358,-4.1362,-4.1365,-4.1338,-4.1333,-4.1328,-4.1323,-4.1524,-4.1537,-4.155,-4.1728,0,0,-4.1589,-4.1594,0,0,0,0,0,0,0,0,-4.0929,-4.0954,-4.1169,-4.1173,-4.1177,-4.1318,-4.1294,-4.1487,-4.1339,-4.1277,-4.1327,-4.1321,-4.1464,-4.1481,-4.153,-4.1737,-4.1746,-4.159,-4.1597,-4.1603,-4.1607,0,0,0,0,0,0,0,-4.0916,-4.0946,-4.1238,-4.1172,-4.1177,-4.1171,-4.1192,-4.133,-4.1396,-4.1282,-4.128,-4.1305,-4.1465,-4.1517,-4.1534,-4.1749,-4.1589,-4.1601,-4.1609,-4.1614,-4.2115,-4.2121,0,0,0,0,0,0,-4.0899,-4.0935,-4.1232,-4.1244,-4.1038,-4.1182,-4.1206,-4.1278,-4.1394,-4.1407,-4.1309,-4.1303,-4.1498,-4.1519,-4.1541,-4.1759,-4.1603,-4.1615,-4.1622,-4.211,-4.2116,-4.2123,0,0,0,0,0,0,-4.0891,-4.0926,-4.1224,-4.109,-4.1127,-4.1195,-4.1276,-4.1284,-4.1337,-4.1414,-4.1426,-4.135,-4.1495,-4.1523,-4.1682,-4.1766,-4.1621,-4.1632,-4.2103,-4.2112,-4.2119,-4.2196,0,0,0,0,0,0,-4.0879,-4.0923,-4.0991,-4.1091,-4.1134,-4.1362,-4.1281,-4.1292,-4.1359,-4.1353,-4.1456,-4.1469,-4.1493,-4.1663,-4.1695,-4.1781,-4.1642,-4.2096,-4.2107,-4.2117,-4.2186,-4.2206,-4.2223,0,0,0,0,0,-4.0865,-4.1004,-4.0995,-4.1031,-4.1221,-4.1366,-4.1391,-4.1417,-4.1366,-4.1435,-4.1485,-4.1465,-4.1751,-4.168,-4.1715,-4.1806,-4.2091,-4.2104,-4.2116,-4.2178,-4.2202,-4.2222,0,0,0,0,0,0,-4.0912,-4.1018,-4.1008,-4.1184,-4.1267,-4.1362,-4.145,-4.1441,-4.1539,-4.153,-4.1557,-4.1581,-4.1742,-4.179,-4.1708,-4.1986,-4.1914,-4.1934,-4.1949,-4.1972,-4.199,-4.1976,-4.1653,0,0,0,0,0,-4.0943,-4.1052,-4.1138,-4.1285,-4.1327,-4.1382,-4.1446,-4.1459,-4.1545,-4.158,-4.1641,-4.1726,-4.1835,-4.1906,-4.201,-4.2193,-4.2215,-4.2273,-4.2291,-4.2306,-4.2323,-4.2425,-4.2452,-4.2164,-4.2164,-4.2164,0,0,-4.1008,-4.1079,-4.1146,-4.1297,-4.1362,-4.1475,-4.1411,-4.1533,-4.1617,-4.1598,-4.1753,-4.1801,-4.1897,-4.2069,-4.2147,-4.2113,-4.2408,-4.2322,-4.2333,-4.2343,-4.2441,-4.2468,-4.2492,-4.2173,-4.2171,-4.217,0,0,-4.1184,-4.1248,-4.1379,-4.1446,-4.1546,-4.1582,-4.1613,-4.171,-4.1742,-4.1897,-4.1885,-4.1986,-4.2173,-4.2242,-4.2302,-4.2507,-4.2493,-4.254,-4.2636,-4.2734,-4.2757,-4.2777,-4.2852,-4.2878,-4.2557,-4.2557,-4.2557,0,-4.1252,-4.1422,-4.1447,-4.1571,-4.1638,-4.1627,-4.1759,-4.1823,-4.1952,-4.1999,-4.1959,-4.2195,-4.2259,-4.2447,-4.2497,-4.2546,-4.2583,-4.2528,-4.2752,-4.2772,-4.2792,-4.2863,-4.2891,-4.2562,-4.2562,-4.2561,-4.2561,0,-4.1501,-4.162,-4.1713,-4.1839,-4.1916,-4.2044,-4.2089,-4.2164,-4.2171,-4.2211,-4.237,-4.2446,-4.2567,-4.2612,-4.2619,-4.2803,-4.2779,-4.2745,-4.2674,-4.2824,-4.2891,-4.2919,-4.257,-4.2568,-4.2566,-4.2565,0,0,-4.1713,-4.1852,-4.1886,-4.1944,-4.2054,-4.2146,-4.2274,-4.2392,-4.2457,-4.2547,-4.2655,-4.2814,-4.2785,-4.2853,-4.2867,-4.2954,-4.3113,-4.291,-4.2913,-4.2946,-4.3322,-4.3347,-4.3379,-4.3104,-4.3109,-4.3113,-4.3314,0,-4.1901,-4.2127,-4.2154,-4.2355,-4.2466,-4.2457,-4.2568,-4.2648,-4.2689,-4.2789,-4.2834,-4.2947,-4.2898,-4.294,-4.3025,-4.3076,-4.3189,-4.3061,-4.3206,-4.3211,-4.3183,-4.3414,-4.3441,-4.3627,-4.3341,-4.3345,-4.3348,0,-4.215,-4.2248,-4.2461,-4.2558,-4.2605,-4.2705,-4.2817,-4.2912,-4.3003,-4.3027,-4.3104,-4.3108,-4.324,-4.3163,-4.3346,-4.3259,-4.332,-4.3354,-4.3362,-4.3377,-4.3289,-4.3437,-4.3686,-4.3715,-4.339,-4.3387,-4.3384,0,-4.2285,-4.247,-4.2622,-4.2671,-4.2787,-4.2858,-4.291,-4.2996,-4.3066,-4.3164,-4.321,-4.3321,-4.3382,-4.3469,-4.3503,-4.3443,-4.3686,-4.361,-4.371,-4.3709,-4.3762,-4.3758,-4.4026,-4.3799,-4.3798,-4.3798,-4.3797,0,-4.2493,-4.2624,-4.2684,-4.2778,-4.2924,-4.2954,-4.3099,-4.3147,-4.3224,-4.3327,-4.3326,-4.3423,-4.3462,-4.3565,-4.3592,-4.3741,-4.3768,-4.3792,-4.3798,-4.3793,-4.379,-4.3834,-4.3822,-4.3805,-4.3804,-4.3802,-4.3801,0,-4.2668,-4.2714,-4.2879,-4.2976,-4.3004,-4.3108,-4.3191,-4.3282,-4.3322,-4.3452,-4.3485,-4.3548,-4.3669,-4.3712,-4.3859,-4.3878,-4.4051,-4.4045,-4.4021,-4.4022,-4.412,-4.4111,-4.4426,-4.447,-4.4212,-4.4215,-4.4217,0,-4.2799,-4.2899,-4.3008,-4.3077,-4.3132,-4.3243,-4.3315,-4.3349,-4.3424,-4.3536,-4.3614,-4.3735,-4.3833,-4.4028,-4.4087,-4.42,-4.4198,-4.4301,-4.4215,-4.4207,-4.4201,-4.4195,-4.4206,-4.4317,-4.432,-4.4322,-4.4323,0,-4.3026,-4.3044,-4.3148,-4.3261,-4.3347,-4.3437,-4.3525,-4.3582,-4.3628,-4.3713,-4.3838,-4.3914,-4.4065,-4.4186,-4.4302,-4.4355,-4.4348,-4.435,-4.4379,-4.4376,-4.4358,-4.4371,-4.4066,-4.4343,-4.4341,-4.4339,-4.4338,-4.4338,-4.3184,-4.3274,-4.3365,-4.3481,-4.3551,-4.3633,-4.3724,-4.3776,-4.388,-4.4007,-4.402,-4.4155,-4.4244,-4.4399,-4.4458,-4.4564,-4.4536,-4.4578,-4.4589,-4.4599,-4.4607,-4.434,-4.4585,-4.4585,-4.4584,-4.4584,-4.4583,0,-4.3412,-4.347,-4.3577,-4.37,-4.3793,-4.3778,-4.3874,-4.3953,-4.4071,-4.4156,-4.4254,-4.4398,-4.4515,-4.4584,-4.4701,-4.4773,-4.4773,-4.4803,-4.4799,-4.4812,-4.4625,-4.4589,-4.4802,-4.4802,-4.4802,-4.4801,-4.4801,-4.4801,-4.3542,-4.3694,-4.3723,-4.3909,-4.3967,-4.41,-4.4156,-4.4232,-4.43,-4.4462,-4.456,-4.4604,-4.4682,-4.4806,-4.4913,-4.493,-4.4974,-4.5008,-4.5022,-4.4847,-4.4824,-4.4803,-4.4769,-4.5017,-4.5017,-4.5201,-4.5202,-4.5204]}]]